FW9714 Weather Reports


time (UTC)temp
C
wind
direction
speed
KPH
gust
KPH
rain 1hr
cm
rain 24hr
cm
rain mn
cm
humidity
%
barometer
mb
20260510193049 23 150 3.2 8.0 0.36 1.40 0.64 85 1015.4
20260510191553 24 71 9.7 25.7 0.58 1.32 0.58 84 1015.3
20260510190057 25 110 9.7 14.5 0.43 1.19 0.43 83 1016.1
20260510184548 25 10 6.4 19.3 0.28 1.04 0.28 83 1015.8
20260510183056 25 51 8.0 22.5 0.28 1.04 0.28 80 1015.8
20260510181554 32 327 3.2 9.7 0.00 0.76 0.00 61 1014.7
20260510180052 32 284 6.4 17.7 0.00 0.76 0.00 56 1014.9
20260510174556 32 227 12.9 20.9 0.00 0.76 0.00 61 1015.1
20260510173053 32 161 9.7 17.7 0.00 0.76 0.00 60 1015.4
20260510171553 31 148 3.2 6.4 0.00 0.76 0.00 65 1015.6
20260510170054 31 159 4.8 12.9 0.00 0.76 0.00 65 1015.9
20260510164554 30 183 6.4 12.9 0.00 0.76 0.00 64 1016.2
20260510163055 30 178 8.0 19.3 0.00 0.76 0.00 67 1016.6
20260510161553 30 212 14.5 17.7 0.00 0.76 0.00 68 1016.4
20260510160133 29 180 8.0 14.5 0.00 0.76 0.00 67 1016.4
20260510154600 29 226 6.4 11.3 0.00 0.76 0.00 70 1016.5
20260510153055 29 249 6.4 12.9 0.00 0.76 0.00 72 1016.6
20260510151553 28 210 8.0 12.9 0.00 0.76 0.00 74 1016.6
20260510150054 28 263 4.8 9.7 0.00 0.76 0.00 74 1016.6
20260510144553 28 240 8.0 12.9 0.00 0.76 0.00 75 1016.3
20260510143056 27 190 8.0 11.3 0.00 0.76 0.00 78 1016.4
20260510141554 26 220 3.2 8.0 0.00 0.76 0.00 82 1016.4
20260510140109 25 187 3.2 8.0 0.00 0.76 0.00 84 1016.2
20260510134604 24 184 1.6 4.8 0.00 0.76 0.00 86 1016.0
20260510133100 23 200 3.2 6.4 0.00 0.76 0.00 87 1015.9
20260510131552 23 194 3.2 6.4 0.00 0.76 0.00 88 1015.9
20260510130047 23 181 6.4 8.0 0.00 0.76 0.00 89 1015.7
20260510124553 22 209 4.8 6.4 0.00 0.76 0.00 89 1015.6
20260510123050 22 208 3.2 6.4 0.00 0.76 0.00 89 1015.6
20260510121547 22 202 3.2 4.8 0.00 0.76 0.00 89 1015.1
20260510120050 22 206 1.6 3.2 0.00 0.76 0.00 89 1015.0
20260510114550 21 158 1.6 4.8 0.00 0.76 0.00 89 1014.9
20260510113051 21 35 0.0 3.2 0.00 0.76 0.00 89 1014.5
20260510111606 21 0 0.0 3.2 0.00 0.76 0.00 89 1014.3
20260510110049 21 267 0.0 3.2 0.00 0.76 0.00 89 1014.3
20260510104547 20 0 0.0 3.2 0.00 0.76 0.00 89 1014.3
20260510103048 21 175 0.0 3.2 0.00 0.76 0.00 89 1013.9
20260510101552 21 178 1.6 6.4 0.00 0.76 0.00 89 1013.6
20260510100053 21 166 6.4 9.7 0.00 0.76 0.00 89 1013.2
20260510094553 21 207 3.2 4.8 0.00 0.76 0.00 89 1013.3
20260510093103 21 227 3.2 6.4 0.00 0.76 0.00 89 1013.3
20260510091549 21 190 6.4 9.7 0.00 0.76 0.00 89 1013.3
20260510090109 22 190 6.4 9.7 0.00 0.76 0.00 89 1013.0
20260510084550 22 165 4.8 12.9 0.00 0.76 0.00 89 1012.8
20260510083108 22 147 8.0 14.5 0.00 0.76 0.00 89 1012.7
20260510081608 22 142 6.4 11.3 0.00 0.76 0.00 89 1012.7
20260510080056 22 162 4.8 11.3 0.00 0.76 0.00 89 1013.0
20260510074603 21 153 3.2 6.4 0.00 0.76 0.00 89 1013.0
20260510073050 21 147 8.0 11.3 0.00 0.76 0.00 89 1013.2
20260510071551 21 160 6.4 11.3 0.00 0.76 0.00 89 1013.2
20260510070232 21 185 8.0 9.7 0.00 0.76 0.00 89 1013.3
20260510064603 21 196 4.8 9.7 0.00 0.76 0.00 88 1013.6
20260510063049 21 171 6.4 11.3 0.00 0.76 0.00 88 1013.7
20260510061556 21 157 4.8 11.3 0.00 0.76 0.00 89 1013.8
20260510060055 21 136 3.2 8.0 0.00 0.76 0.00 88 1014.1
20260510054550 21 115 4.8 8.0 0.00 0.76 0.00 88 1014.3
20260510053053 21 159 4.8 8.0 0.00 0.76 0.00 88 1014.6
20260510051551 21 161 3.2 6.4 0.00 0.76 0.00 88 1014.6
20260510050051 21 182 4.8 8.0 0.00 0.76 0.00 88 1014.5
20260510044610 21 245 0.0 3.2 0.00 0.76 0.00 88 1014.8
20260510043047 21 0 0.0 3.2 0.00 0.76 0.00 88 1014.7
20260510041552 21 233 1.6 6.4 0.00 0.76 0.00 88 1015.0
20260510040050 21 101 0.0 6.4 0.00 0.76 0.00 88 1015.1
20260510034551 21 152 1.6 3.2 0.00 0.76 0.76 87 1015.1
20260510033056 21 129 1.6 4.8 0.00 0.76 0.76 87 1015.0
20260510031550 21 129 1.6 3.2 0.00 0.76 0.76 87 1014.7
20260510030051 22 129 3.2 6.4 0.00 0.76 0.76 87 1014.9
20260510024552 22 109 3.2 4.8 0.00 0.76 0.76 87 1014.9
20260510023050 22 78 4.8 8.0 0.00 0.76 0.76 86 1014.7
20260510021552 22 104 3.2 6.4 0.00 0.76 0.76 86 1014.5
20260510020051 22 98 3.2 9.7 0.00 0.76 0.76 86 1014.4
20260510014552 22 78 1.6 4.8 0.00 0.76 0.76 86 1014.4
20260510013050 23 100 6.4 9.7 0.00 0.76 0.76 86 1014.1
20260510011558 23 106 6.4 6.4 0.00 0.76 0.76 86 1013.9
20260510010124 23 65 4.8 8.0 0.00 0.76 0.76 86 1013.7
20260510004553 23 84 3.2 4.8 0.00 0.76 0.76 85 1014.0
20260510003054 23 23 4.8 6.4 0.00 0.76 0.76 85 1013.6
20260510001556 23 319 3.2 8.0 0.00 0.76 0.76 85 1013.4
20260510000050 23 18 3.2 11.3 0.00 0.76 0.76 84 1013.1
20260509234555 23 344 3.2 9.7 0.00 0.91 0.76 84 1012.8
20260509233047 23 338 8.0 14.5 0.00 0.91 0.76 84 1012.9
20260509231550 24 351 9.7 19.3 0.00 0.91 0.76 84 1013.1
20260509230054 24 333 6.4 12.9 0.00 0.91 0.76 84 1012.7
20260509224549 24 346 6.4 14.5 0.00 0.91 0.76 84 1012.4
20260509223047 24 14 8.0 14.5 0.00 0.91 0.76 84 1012.3
20260509221546 24 34 4.8 9.7 0.00 0.91 0.76 85 1012.4
20260509220049 24 37 4.8 11.3 0.00 0.91 0.76 85 1012.5
20260509214548 24 352 6.4 14.5 0.00 0.91 0.76 85 1012.3
20260509213051 23 360 9.7 17.7 0.00 0.91 0.76 84 1012.2
20260509211553 23 352 8.0 24.1 0.00 0.91 0.76 84 1012.1
20260509210051 24 27 9.7 16.1 0.00 0.91 0.76 85 1012.0
20260509204551 24 339 6.4 8.0 0.00 0.91 0.76 86 1011.9
20260509203124 24 0.0 0.0 0.74 0.91 0.76 85 1012.1
20260509201556 24 0.0 8.0 0.76 0.91 0.76 85 1012.0
20260509200059 24 0 0.0 0.0 0.76 0.91 0.76 83 1012.1
20260509194547 25 0 0.0 0.0 0.33 0.48 0.33 78 1012.6